Location: Newark
(40.3500°N, 15.2333°E)
Time: 17:42:10
(UTC+00:00)

Vanguard 1 - Pass Details

Date: 29 January 2020
Orbit: 650 x 3833 km, 34.2° (Epoch: 21 February)

Event Time Altitude Azimuth Distance (km) Brightness Sun altitude
Rises 16:37:05 0° 260° (W) 3,043 15.0 -5.1°
Reaches altitude 10° 16:39:31 10° 252° (WSW) 2,054 13.7 -5.5°
Maximum altitude 16:43:39 40° 182° (S) 977 10.3 -6.3°
Drops below altitude 10° 16:48:24 10° 112° (ESE) 2,358 11.6 -7.1°
Enters shadow 16:50:27 - 107° (ESE) 3,190 12.2 -7.5°
Sets 16:51:23 0° 105° (ESE) 3,567 - -7.7°
